#timestamp,LO_Frequency,Hit,StdDev 
1605985215.6,286047001.1,N
1605985235.4,286046998.5,N
1605985255.2,286046998.7,N
1605985275.1,286047000.3,N
1605985276.0,286047000.3,N
1605985295.8,286047002.0,N
1605985315.6,286047002.5,N
1605985335.5,286047001.6,N
1605985355.3,286047001.5,N
1605985375.2,286047001.6,N
1605985395.9,286047002.0,N
1605985415.7,286047004.2,N
1605985435.6,286047003.8,N
1605985455.4,286047001.9,N
1605985475.2,286047001.6,N
1605985495.1,286047002.1,N
1605985496.0,286047002.1,N
1605985515.8,286047001.4,N
1605985535.6,286047003.5,N
1605985555.5,286047004.0,N
1605985575.3,286047003.2,N
1605985595.2,286047004.1,N
1605985615.9,286047003.0,N
1605985635.7,286047005.2,Y
1605985655.6,286047001.9,P
1605985675.4,286047001.5,P
1605985695.3,286047002.2,P
1605985715.1,286047002.3,Y
1605985716.0,286047002.3,P
1605985735.8,286047001.1,P
1605985755.7,286047002.0,P
1605985775.5,286047001.8,Y
1605985795.3,286046999.9,P
1605985815.2,286046999.8,N
1605985835.0,286046999.8,N
1605985835.9,286046999.8,N
1605985855.8,286046999.8,N
1605985875.6,286046999.7,N
1605985895.4,286047002.3,Y
1605985915.3,286047004.2,P
1605985935.1,286047001.3,N
1605985955.8,286047001.3,N
1605985975.7,286047002.4,N
1605985995.5,286047001.0,N
1605986015.4,286046998.9,N
1605986035.2,286047000.6,N
1605986055.0,286046998.8,N
1605986055.9,286046998.8,N
1605986075.8,286046998.6,N
1605986095.6,286046999.7,N
1605986115.4,286047000.8,N
1605986135.3,286047000.2,N
1605986155.1,286047000.7,N
1605986175.9,286047002.3,N
1605986195.7,286046999.8,N
1605986215.5,286047002.3,N
1605986235.4,286047000.4,N
1605986255.2,286047001.0,N
1605986275.0,286047001.2,N
1605986275.9,286047001.2,N
1605986295.8,286047000.8,N
1605986315.6,286046998.6,N
1605986335.5,286046998.2,N
1605986355.3,286047001.0,N
1605986375.1,286046998.8,N
1605986395.9,286047000.8,N
1605986415.7,286046998.8,N
1605986435.5,286046998.9,N
1605986455.4,286046998.7,N
1605986475.2,286046999.0,N
1605986495.1,286046999.0,N
1605986496.0,286046999.0,N
1605986515.8,286046998.7,N
1605986535.6,286046998.8,N
1605986555.5,286046998.7,N
1605986575.3,286047000.2,N
1605986595.1,286047001.0,N
1605986615.9,286046998.3,N
1605986635.7,286046999.6,N
1605986655.6,286046996.9,N
1605986675.4,286046996.9,N
1605986695.2,286046998.3,N
1605986715.1,286047000.8,N
1605986716.0,286047000.8,N
1605986735.8,286047000.9,N
1605986755.6,286046998.4,N
1605986775.5,286046999.4,N
1605986795.3,286046999.1,N
1605986815.2,286046999.2,N
1605986835.9,286046998.7,N
1605986855.7,286047000.0,N
1605986875.6,286047000.6,N
1605986895.4,286047000.6,N
1605986915.2,286046998.5,N
1605986935.1,286046999.4,N
1605986936.0,286046999.4,N
1605986955.8,286046999.5,N
1605986975.7,286046997.0,N
1605986995.5,286046998.2,N
1605987015.3,286046998.3,N
1605987035.2,286046998.4,N
1605987055.0,286046998.9,N
1605987055.9,286046998.9,N
1605987075.7,286046999.4,N
1605987095.6,286046998.3,N
1605987115.4,286046998.7,N
1605987135.3,286046997.7,N
1605987155.1,286046999.1,N
1605987156.0,286046999.1,N
1605987175.8,286046999.5,N
1605987195.7,286046996.7,Y
1605987215.5,286046998.8,P
1605987235.3,286046999.1,P
1605987255.2,286046997.6,P
1605987275.0,286046998.4,N
1605987275.9,286046998.4,N
1605987295.8,286046998.4,Y
1605987315.6,286047000.1,P
1605987335.4,286046996.5,P
1605987355.3,286046996.6,N
1605987375.1,286046999.4,N
1605987395.9,286046999.2,N
1605987415.7,286046998.7,N
1605987435.5,286046998.5,N
1605987455.4,286046998.3,N
1605987475.2,286047001.1,N
1605987495.0,286046998.7,N
1605987495.9,286046998.7,N
1605987515.8,286047000.4,N
1605987535.6,286047001.2,N
1605987555.5,286046998.3,N
1605987575.3,286047000.1,N
1605987595.1,286047000.7,N
1605987615.9,286046998.5,N
1605987635.7,286046997.1,N
1605987655.5,286046998.8,N
1605987675.4,286046999.6,N
1605987695.2,286046997.9,N
1605987715.0,286046997.2,N
1605987716.0,286046997.2,N
1605987735.8,286046997.1,N
1605987755.6,286046995.7,Y
1605987775.5,286046998.7,P
1605987795.3,286046999.2,P
1605987815.1,286046999.6,N
1605987835.9,286046998.1,Y
1605987855.7,286047000.5,P
1605987875.6,286046998.6,N
1605987895.4,286046999.3,N
1605987915.2,286046998.1,N
1605987935.1,286047000.8,N
1605987936.0,286047000.8,N
1605987955.8,286046998.1,N
1605987975.6,286046999.8,N
1605987995.5,286047002.2,N
1605988015.3,286047002.7,N
1605988035.2,286046999.9,N
1605988055.9,286047000.5,N
1605988075.7,286047000.5,N
1605988095.6,286047002.4,N
1605988115.4,286046999.8,N
1605988135.2,286047000.9,N
1605988155.1,286047001.2,N
1605988156.0,286047001.2,N
1605988175.8,286046998.4,N
1605988195.6,286046999.2,N
1605988215.5,286046998.9,N
1605988235.3,286046998.5,N
1605988255.2,286046999.3,N
1605988275.9,286046999.6,N
1605988295.7,286046999.2,N
1605988315.6,286046998.9,N
1605988335.4,286046996.9,N
1605988355.2,286046997.2,N
1605988375.1,286046996.6,N
1605988376.0,286046996.6,N
1605988395.8,286046996.8,N
1605988415.7,286046997.0,N
1605988435.5,286046997.1,N
1605988455.3,286046997.0,N
1605988475.2,286046997.0,N
1605988495.0,286047001.2,N
1605988495.9,286047001.2,N
1605988515.7,286046999.4,N
1605988535.6,286046997.0,N
1605988555.4,286046997.7,N
1605988575.3,286046997.2,N
1605988595.1,286046996.6,N
1605988596.0,286046996.6,N
1605988615.8,286046997.1,N
1605988635.7,286046999.4,N
1605988655.5,286046999.2,N
1605988675.3,286046998.1,N
1605988695.2,286047000.7,N
1605988715.0,286046998.2,N
1605988715.9,286046998.2,N
1605988735.8,286047000.6,N
1605988755.6,286047001.0,N
1605988775.4,286047001.1,N
1605988795.3,286046999.8,N
